Time,TemperatureF,DewpointF,PressureIn,WindDirection,WindDirectionDegrees,WindSpeedMPH,WindSpeedGustMPH,Humidity,HourlyPrecipIn,Conditions,Clouds,dailyrainin,SoftwareType,DateUTC
2013-01-08 00:05:00,24.4,21.0,29.97,SSW,213,0.0,-999.0,85,-99.99,,,0.00,weatherlink.com 1.10,2013-01-08 06:05:00,
2013-01-08 00:20:00,24.2,21.0,29.97,SSW,213,1.0,-999.0,86,-99.99,,,0.00,weatherlink.com 1.10,2013-01-08 06:20:00,
2013-01-08 00:35:00,24.1,21.0,29.97,SSW,213,2.0,-999.0,86,-99.99,,,0.00,weatherlink.com 1.10,2013-01-08 06:35:00,
2013-01-08 00:50:00,24.1,21.0,29.97,SSW,213,2.0,-999.0,86,-99.99,,,0.00,weatherlink.com 1.10,2013-01-08 06:50:00,
2013-01-08 01:05:00,24.7,21.0,29.97,SSW,213,1.0,-999.0,86,-99.99,,,0.00,weatherlink.com 1.10,2013-01-08 07:05:00,
2013-01-08 01:20:00,25.1,21.0,29.97,SSW,213,1.0,-999.0,84,-99.99,,,0.00,weatherlink.com 1.10,2013-01-08 07:20:00,
2013-01-08 01:35:00,24.8,20.0,29.97,SSW,213,1.0,-999.0,83,-99.99,,,0.00,weatherlink.com 1.10,2013-01-08 07:35:00,
2013-01-08 01:50:00,24.5,20.0,29.97,SSW,213,1.0,-999.0,83,-99.99,,,0.00,weatherlink.com 1.10,2013-01-08 07:50:00,
2013-01-08 02:05:00,24.1,20.0,29.98,SSW,213,1.0,-999.0,83,-99.99,,,0.00,weatherlink.com 1.10,2013-01-08 08:05:00,
2013-01-08 02:20:00,22.4,18.0,29.97,SSW,213,0.0,-999.0,83,-99.99,,,0.00,weatherlink.com 1.10,2013-01-08 08:20:00,
2013-01-08 02:35:00,21.9,18.0,29.97,SSW,213,1.0,-999.0,86,-99.99,,,0.00,weatherlink.com 1.10,2013-01-08 08:35:00,
2013-01-08 02:50:00,21.6,18.0,29.97,SSW,213,0.0,-999.0,87,-99.99,,,0.00,weatherlink.com 1.10,2013-01-08 08:50:00,
2013-01-08 03:05:00,21.6,18.0,29.96,SSW,213,1.0,-999.0,87,-99.99,,,0.00,weatherlink.com 1.10,2013-01-08 09:05:00,
2013-01-08 03:20:00,21.6,18.0,29.96,SSW,213,0.0,-999.0,87,-99.99,,,0.00,weatherlink.com 1.10,2013-01-08 09:20:00,
2013-01-08 03:35:00,21.6,19.0,29.96,SSW,213,2.0,-999.0,88,-99.99,,,0.00,weatherlink.com 1.10,2013-01-08 09:35:00,
2013-01-08 03:50:00,21.4,18.0,29.96,SSW,207,0.0,-999.0,88,-99.99,,,0.00,weatherlink.com 1.10,2013-01-08 09:50:00,
2013-01-08 04:05:00,21.3,18.0,29.96,SSW,207,2.0,-999.0,88,-99.99,,,0.00,weatherlink.com 1.10,2013-01-08 10:05:00,
2013-01-08 04:20:00,21.0,18.0,29.96,SSW,207,2.0,-999.0,88,-99.99,,,0.00,weatherlink.com 1.10,2013-01-08 10:20:00,
2013-01-08 04:35:00,21.4,18.0,29.95,SSW,207,2.0,-999.0,87,-99.99,,,0.00,weatherlink.com 1.10,2013-01-08 10:35:00,
2013-01-08 04:50:00,21.4,18.0,29.95,SSW,207,0.0,-999.0,87,-99.99,,,0.00,weatherlink.com 1.10,2013-01-08 10:50:00,
2013-01-08 05:05:00,20.8,17.0,29.95,SSW,207,0.0,-999.0,86,-99.99,,,0.00,weatherlink.com 1.10,2013-01-08 11:05:00,
2013-01-08 05:20:00,19.9,16.0,29.95,SSW,207,0.0,-999.0,86,-99.99,,,0.00,weatherlink.com 1.10,2013-01-08 11:20:00,
2013-01-08 05:35:00,18.9,15.0,29.95,SSW,207,0.0,-999.0,86,-99.99,,,0.00,weatherlink.com 1.10,2013-01-08 11:35:00,
2013-01-08 05:50:00,18.4,16.0,29.95,SSW,207,0.0,-999.0,88,-99.99,,,0.00,weatherlink.com 1.10,2013-01-08 11:50:00,
2013-01-08 06:05:00,19.7,17.0,29.95,SSW,207,0.0,-999.0,88,-99.99,,,0.00,weatherlink.com 1.10,2013-01-08 12:05:00,
2013-01-08 06:20:00,19.5,17.0,29.95,SSW,207,0.0,-999.0,88,-99.99,,,0.00,weatherlink.com 1.10,2013-01-08 12:20:00,
2013-01-08 06:35:00,19.4,16.0,29.95,SSW,207,0.0,-999.0,88,-99.99,,,0.00,weatherlink.com 1.10,2013-01-08 12:35:00,
2013-01-08 06:50:00,19.7,17.0,29.95,SSW,207,1.0,-999.0,88,-99.99,,,0.00,weatherlink.com 1.10,2013-01-08 12:50:00,
2013-01-08 07:05:00,20.8,18.0,29.95,South,190,1.0,-999.0,88,-99.99,,,0.00,weatherlink.com 1.10,2013-01-08 13:05:00,
2013-01-08 07:20:00,21.8,19.0,29.95,South,176,0.0,-999.0,87,-99.99,,,0.00,weatherlink.com 1.10,2013-01-08 13:20:00,
2013-01-08 07:35:00,21.6,18.0,29.96,South,176,0.0,-999.0,86,-99.99,,,0.00,weatherlink.com 1.10,2013-01-08 13:35:00,
2013-01-08 07:50:00,20.0,16.0,29.96,South,176,0.0,-999.0,85,-99.99,,,0.00,weatherlink.com 1.10,2013-01-08 13:50:00,
2013-01-08 08:05:00,19.4,16.0,29.96,South,176,0.0,-999.0,86,-99.99,,,0.00,weatherlink.com 1.10,2013-01-08 14:05:00,
2013-01-08 08:20:00,19.1,16.0,29.96,South,176,0.0,-999.0,86,-99.99,,,0.00,weatherlink.com 1.10,2013-01-08 14:20:00,
2013-01-08 08:35:00,19.9,17.0,29.96,South,176,0.0,-999.0,87,-99.99,,,0.00,weatherlink.com 1.10,2013-01-08 14:35:00,
2013-01-08 08:50:00,20.8,18.0,29.95,South,176,1.0,-999.0,87,-99.99,,,0.00,weatherlink.com 1.10,2013-01-08 14:50:00,
2013-01-08 09:05:00,21.9,18.0,29.94,SE,124,2.0,-999.0,85,-99.99,,,0.00,weatherlink.com 1.10,2013-01-08 15:05:00,
2013-01-08 09:20:00,22.2,18.0,29.94,ESE,123,0.0,-999.0,84,-99.99,,,0.00,weatherlink.com 1.10,2013-01-08 15:20:00,
2013-01-08 09:35:00,23.5,19.0,29.93,ESE,123,0.0,-999.0,83,-99.99,,,0.00,weatherlink.com 1.10,2013-01-08 15:35:00,
2013-01-08 09:50:00,25.6,21.0,29.93,ESE,123,0.0,-999.0,81,-99.99,,,0.00,weatherlink.com 1.10,2013-01-08 15:50:00,
2013-01-08 10:05:00,25.8,20.0,29.92,ESE,123,3.0,-999.0,79,-99.99,,,0.00,weatherlink.com 1.10,2013-01-08 16:05:00,
2013-01-08 10:20:00,27.0,21.0,29.91,ESE,123,2.0,-999.0,79,-99.99,,,0.00,weatherlink.com 1.10,2013-01-08 16:20:00,
2013-01-08 10:35:00,28.4,22.0,29.89,East,97,1.0,-999.0,77,-99.99,,,0.00,weatherlink.com 1.10,2013-01-08 16:35:00,
2013-01-08 10:50:00,30.4,23.0,29.89,SE,143,3.0,-999.0,75,-99.99,,,0.00,weatherlink.com 1.10,2013-01-08 16:50:00,
2013-01-08 11:05:00,31.2,23.0,29.89,SSE,150,0.0,-999.0,73,-99.99,,,0.00,weatherlink.com 1.10,2013-01-08 17:05:00,
2013-01-08 11:20:00,31.5,23.0,29.89,SE,134,3.0,-999.0,72,-99.99,,,0.00,weatherlink.com 1.10,2013-01-08 17:20:00,
2013-01-08 11:35:00,31.5,24.0,29.88,South,186,0.0,-999.0,73,-99.99,,,0.00,weatherlink.com 1.10,2013-01-08 17:35:00,
2013-01-08 11:50:00,31.6,24.0,29.87,SSE,168,2.0,-999.0,72,-99.99,,,0.00,weatherlink.com 1.10,2013-01-08 17:50:00,
2013-01-08 12:05:00,31.9,24.0,29.86,SSE,154,2.0,-999.0,72,-99.99,,,0.00,weatherlink.com 1.10,2013-01-08 18:05:00,
2013-01-08 12:20:00,33.2,25.0,29.84,SSE,152,2.0,-999.0,71,-99.99,,,0.00,weatherlink.com 1.10,2013-01-08 18:20:00,
2013-01-08 12:35:00,33.1,24.0,29.82,SSE,163,0.0,-999.0,70,-99.99,,,0.00,weatherlink.com 1.10,2013-01-08 18:35:00,
2013-01-08 12:50:00,32.9,24.0,29.82,SSE,150,2.0,-999.0,71,-99.99,,,0.00,weatherlink.com 1.10,2013-01-08 18:50:00,
2013-01-08 13:05:00,33.8,25.0,29.82,SSW,199,3.0,-999.0,70,-99.99,,,0.00,weatherlink.com 1.10,2013-01-08 19:05:00,
2013-01-08 13:20:00,34.4,25.0,29.80,SE,127,4.0,-999.0,69,-99.99,,,0.00,weatherlink.com 1.10,2013-01-08 19:20:00,
2013-01-08 13:35:00,34.4,25.0,29.80,ESE,108,4.0,-999.0,69,-99.99,,,0.00,weatherlink.com 1.10,2013-01-08 19:35:00,
2013-01-08 13:50:00,34.0,24.0,29.79,SSE,153,5.0,-999.0,68,-99.99,,,0.00,weatherlink.com 1.10,2013-01-08 19:50:00,
2013-01-08 14:05:00,33.5,25.0,29.79,East,101,0.0,-999.0,70,-99.99,,,0.00,weatherlink.com 1.10,2013-01-08 20:05:00,
2013-01-08 14:20:00,33.5,25.0,29.78,SSW,195,9.0,-999.0,71,-99.99,,,0.00,weatherlink.com 1.10,2013-01-08 20:20:00,
2013-01-08 14:35:00,33.4,25.0,29.79,SSW,204,4.0,-999.0,72,-99.99,,,0.00,weatherlink.com 1.10,2013-01-08 20:35:00,
2013-01-08 14:50:00,32.9,25.0,29.78,SSE,165,4.0,-999.0,73,-99.99,,,0.00,weatherlink.com 1.10,2013-01-08 20:50:00,
2013-01-08 15:05:00,32.8,25.0,29.78,SSW,195,5.0,-999.0,74,-99.99,,,0.00,weatherlink.com 1.10,2013-01-08 21:05:00,
2013-01-08 15:20:00,32.5,25.0,29.78,South,181,1.0,-999.0,74,-99.99,,,0.00,weatherlink.com 1.10,2013-01-08 21:20:00,
2013-01-08 15:35:00,32.5,26.0,29.78,SSW,204,10.0,-999.0,76,-99.99,,,0.00,weatherlink.com 1.10,2013-01-08 21:35:00,
2013-01-08 15:50:00,32.5,26.0,29.78,SSE,155,3.0,-999.0,77,-99.99,,,0.00,weatherlink.com 1.10,2013-01-08 21:50:00,
2013-01-08 16:05:00,32.7,26.0,29.78,SE,146,1.0,-999.0,77,-99.99,,,0.00,weatherlink.com 1.10,2013-01-08 22:05:00,
2013-01-08 16:20:00,32.4,26.0,29.76,SW,232,6.0,-999.0,78,-99.99,,,0.00,weatherlink.com 1.10,2013-01-08 22:20:00,
2013-01-08 16:35:00,32.4,27.0,29.77,SSW,198,5.0,-999.0,79,-99.99,,,0.00,weatherlink.com 1.10,2013-01-08 22:35:00,
2013-01-08 16:50:00,32.2,27.0,29.77,SSW,193,6.0,-999.0,80,-99.99,,,0.00,weatherlink.com 1.10,2013-01-08 22:50:00,
2013-01-08 17:05:00,32.2,27.0,29.77,SW,228,7.0,-999.0,81,-99.99,,,0.00,weatherlink.com 1.10,2013-01-08 23:05:00,
2013-01-08 17:20:00,33.1,28.0,29.77,SW,233,9.0,-999.0,81,-99.99,,,0.00,weatherlink.com 1.10,2013-01-08 23:20:00,
2013-01-08 17:35:00,33.4,28.0,29.78,SSW,205,4.0,-999.0,80,-99.99,,,0.00,weatherlink.com 1.10,2013-01-08 23:35:00,
2013-01-08 17:50:00,33.1,28.0,29.78,South,179,8.0,-999.0,80,-99.99,,,0.00,weatherlink.com 1.10,2013-01-08 23:50:00,
2013-01-08 18:05:00,32.9,28.0,29.77,SSW,207,10.0,-999.0,81,-99.99,,,0.00,weatherlink.com 1.10,2013-01-09 00:05:00,
2013-01-08 18:20:00,32.8,28.0,29.78,SW,214,4.0,-999.0,81,-99.99,,,0.00,weatherlink.com 1.10,2013-01-09 00:20:00,
2013-01-08 18:35:00,32.8,28.0,29.78,SSW,208,5.0,-999.0,81,-99.99,,,0.00,weatherlink.com 1.10,2013-01-09 00:35:00,
2013-01-08 18:50:00,32.7,27.0,29.79,SW,214,4.0,-999.0,80,-99.99,,,0.00,weatherlink.com 1.10,2013-01-09 00:50:00,
2013-01-08 19:05:00,32.2,27.0,29.78,WSW,245,4.0,-999.0,80,-99.99,,,0.00,weatherlink.com 1.10,2013-01-09 01:05:00,
2013-01-08 19:20:00,31.6,26.0,29.80,SW,233,7.0,-999.0,81,-99.99,,,0.00,weatherlink.com 1.10,2013-01-09 01:20:00,
2013-01-08 19:35:00,31.0,26.0,29.80,SSW,211,9.0,-999.0,82,-99.99,,,0.00,weatherlink.com 1.10,2013-01-09 01:35:00,
2013-01-08 19:50:00,30.6,26.0,29.81,SW,217,3.0,-999.0,82,-99.99,,,0.00,weatherlink.com 1.10,2013-01-09 01:50:00,
2013-01-08 20:05:00,30.1,26.0,29.82,SW,227,3.0,-999.0,83,-99.99,,,0.00,weatherlink.com 1.10,2013-01-09 02:05:00,
2013-01-08 20:20:00,29.8,25.0,29.82,WSW,250,6.0,-999.0,82,-99.99,,,0.00,weatherlink.com 1.10,2013-01-09 02:20:00,
2013-01-08 20:35:00,29.5,25.0,29.82,SW,219,5.0,-999.0,82,-99.99,,,0.00,weatherlink.com 1.10,2013-01-09 02:35:00,
2013-01-08 20:50:00,30.4,25.0,29.82,SW,226,8.0,-999.0,80,-99.99,,,0.00,weatherlink.com 1.10,2013-01-09 02:50:00,
2013-01-08 21:05:00,30.9,25.0,29.83,West,279,7.0,-999.0,79,-99.99,,,0.00,weatherlink.com 1.10,2013-01-09 03:05:00,
2013-01-08 21:20:00,30.9,25.0,29.83,WSW,250,10.0,-999.0,79,-99.99,,,0.00,weatherlink.com 1.10,2013-01-09 03:20:00,
2013-01-08 21:35:00,31.2,25.0,29.84,WSW,250,9.0,-999.0,79,-99.99,,,0.00,weatherlink.com 1.10,2013-01-09 03:35:00,
2013-01-08 21:50:00,31.2,25.0,29.85,West,271,4.0,-999.0,78,-99.99,,,0.00,weatherlink.com 1.10,2013-01-09 03:50:00,
2013-01-08 22:05:00,30.6,25.0,29.86,West,264,10.0,-999.0,79,-99.99,,,0.00,weatherlink.com 1.10,2013-01-09 04:05:00,
2013-01-08 22:20:00,30.3,25.0,29.87,West,261,10.0,-999.0,79,-99.99,,,0.00,weatherlink.com 1.10,2013-01-09 04:20:00,
2013-01-08 22:35:00,29.8,24.0,29.87,West,276,5.0,-999.0,80,-99.99,,,0.00,weatherlink.com 1.10,2013-01-09 04:35:00,
2013-01-08 22:50:00,29.5,24.0,29.89,West,264,7.0,-999.0,80,-99.99,,,0.00,weatherlink.com 1.10,2013-01-09 04:50:00,
2013-01-08 23:05:00,29.4,24.0,29.89,West,266,9.0,-999.0,80,-99.99,,,0.00,weatherlink.com 1.10,2013-01-09 05:05:00,
2013-01-08 23:20:00,29.4,24.0,29.90,WSW,245,7.0,-999.0,81,-99.99,,,0.00,weatherlink.com 1.10,2013-01-09 05:20:00,
2013-01-08 23:35:00,29.4,24.0,29.90,West,259,10.0,-999.0,81,-99.99,,,0.00,weatherlink.com 1.10,2013-01-09 05:35:00,
2013-01-08 23:50:00,29.4,24.0,29.91,WSW,257,5.0,-999.0,81,-99.99,,,0.00,weatherlink.com 1.10,2013-01-09 05:50:00,